Probability
0 0 0 0 0 0 0 0 0 0 0 0 0 0 1 2 3 3 3 2 1 0 0 1 4 6 6 6 4 2 1 0 0 0 0 0 0 0 0 0 0 0 0 0
0 0 0 0 0 0 0 0 0 0 0 0 0 0 1 2 3 3 3 2 1 0 1 2 4 6 6 6 4 3 1 0 0 0 0 0 0 0 0 0 0 0 0 0
0 0 0 0 0 0 0 0 0 0 0 0 0 0 0 1 3 3 3 1 0 1 3 4 5 6 6 5 4 3 2 1 0 0 0 0 0 0 0 0 0 0 0 0
0 0 0 0 0 0 0 0 0 0 0 0 0 0 0 1 2 3 2 1 1 3 4 5 4 5 4 4 3 3 3 1 0 0 0 0 0 0 0 0 0 0 0 0
0 0 0 0 0 0 0 0 0 0 0 0 0 0 0 1 2 3 3 2 2 4 5 3 2 3 3 3 3 3 3 2 1 0 0 0 0 0 0 0 0 0 0 0
0 0 0 0 0 0 0 0 0 0 0 0 0 0 0 1 2 3 3 3 3 4 4 2 1 2 3 3 3 3 3 3 1 0 0 0 0 0 0 0 0 0 0 0
0 0 0 0 0 0 0 0 0 0 0 0 0 0 0 0 1 3 3 3 4 4 3 1 0 1 3 3 3 3 3 3 2 1 0 0 0 0 0 0 0 0 0 0
0 0 0 0 0 0 0 0 0 0 0 0 0 0 0 0 1 2 3 3 3 3 3 1 0 1 3 4 4 3 3 3 3 2 1 0 0 0 0 0 0 0 0 0
0 0 0 0 0 0 0 0 0 0 0 0 0 0 0 0 0 1 1 3 3 3 2 1 1 2 4 6 6 4 3 3 3 3 1 0 0 0 0 0 0 0 0 0
0 0 0 0 0 0 0 0 0 0 0 0 0 0 0 0 0 0 1 2 3 3 2 1 2 3 4 6 7 6 4 3 3 3 2 1 0 0 0 0 0 0 0 0
0 0 0 0 0 0 0 0 0 0 0 0 0 0 0 0 0 0 1 2 3 3 3 3 4 5 4 6 7 6 4 3 3 3 2 1 0 0 0 0 0 0 0 0
0 0 0 0 0 0 0 0 0 0 0 0 0 0 0 0 0 0 1 2 3 3 3 4 6 6 5 5 5 5 4 3 2 1 1 0 0 0 0 0 0 0 0 0
0 0 0 0 0 0 0 0 0 0 0 0 0 0 0 0 0 0 1 2 3 3 3 4 5 6 6 5 4 4 3 2 1 0 0 0 0 0 0 0 0 0 0 0
0 0 0 0 0 0 0 0 0 0 0 0 0 0 0 0 0 0 0 1 3 3 3 3 2 3 4 5 4 4 3 1 0 0 0 0 0 0 0 0 0 0 0 0
0 0 0 0 0 0 0 0 0 0 0 0 0 0 0 0 0 0 0 1 2 3 3 2 1 0 2 4 5 5 4 2 1 0 0 0 0 0 0 0 0 0 0 0
0 0 0 0 0 0 0 0 0 0 0 0 0 0 0 0 0 0 0 1 2 3 3 2 1 0 1 3 5 6 5 4 3 1 0 0 0 0 0 0 0 0 0 0
0 0 0 0 0 0 0 0 0 0 0 0 0 0 0 0 0 0 0 1 2 3 3 3 1 0 0 1 3 5 5 6 4 1 0 0 0 0 0 0 0 0 0 0
0 0 0 0 0 0 0 0 0 0 0 0 0 0 0 0 0 0 0 0 1 3 3 3 2 1 1 1 2 3 5 5 3 1 0 0 0 0 0 0 0 0 0 0
0 0 0 0 0 0 0 0 0 0 0 0 0 0 0 0 0 0 0 0 1 2 3 3 3 3 2 2 1 3 4 4 3 1 0 0 0 0 0 0 0 0 0 0
0 0 0 0 0 0 0 0 0 0 0 0 0 0 0 0 0 0 0 0 1 2 3 3 3 3 2 1 1 3 3 3 2 1 0 0 0 0 0 0 0 0 0 0
0 0 0 0 0 0 0 0 0 0 0 0 0 0 0 0 0 0 0 1 2 3 3 3 3 2 1 1 1 2 2 2 2 1 0 0 0 0 0 0 0 0 0 0
0 0 0 0 0 0 0 0 0 0 0 0 0 0 0 0 0 0 0 1 2 2 2 2 2 1 0 0 1 1 0 1 1 0 0 0 0 0 0 0 0 0 0 0
0 0 0 0 0 0 0 0 0 0 0 0 0 0 0 0 0 0 0 0 1 1 1 1 1 0 0 0 1 0 0 0 0 0 0 0 0 1 0 0 0 0 0 0
0 0 0 0 0 0 0 0 0 0 0 0 0 0 0 0 0 0 0 0 0 0 0 0 0 0 0 0 0 0 0 0 0 0 0 0 0 0 0 0 0 0 0 0
0 0 0 0 0 0 0 0 0 0 0 0 0 0 0 0 0 0 0 0 0 0 0 0 0 0 0 0 0 0 0 0 0 0 0 0 0 0 0 0 0 0 0 0
0 0 0 0 0 0 0 0 0 0 0 0 0 0 0 0 0 0 0 0 0 0 0 0 0 0 0 0 0 0 0 0 0 0 0 0 0 0 0 0 0 0 0 0
Wind_Speed
0 3 3 7 7 5 4 3 3 5 4 3 5 5 7 8 8 9 8 8 9 9 6 6 7 7 7 6 6 5 5 4 4 3 2 2 1 1 2 2 3 3 3 4
3 3 7 6 4 4 3 3 3 3 3 2 3 5 6 7 10 11 11 11 10 8 6 6 7 6 7 7 6 6 6 5 4 3 3 2 2 1 1 1 2 3 3 3
5 6 4 3 3 3 3 4 4 4 1 1 0 3 4 4 5 6 8 10 10 11 11 9 8 7 7 7 8 7 7 6 5 5 3 3 3 2 2 2 2 2 2 3
3 4 2 2 3 3 3 3 3 2 1 3 2 3 7 5 5 8 9 9 10 10 10 10 9 8 8 8 8 8 7 6 5 5 5 5 3 2 2 1 0 1 2 3
3 2 2 3 4 3 4 2 1 1 2 1 1 2 7 2 5 9 10 11 11 11 12 11 10 10 8 7 7 7 7 6 5 6 6 6 4 2 1 1 1 1 2 2
3 2 2 3 1 2 1 4 4 4 3 2 5 4 6 5 9 8 9 10 11 11 11 11 10 8 7 6 6 7 7 6 6 6 6 6 6 4 3 2 2 1 1 1
4 4 2 1 2 3 5 5 3 4 2 5 3 3 7 6 7 8 10 10 10 11 11 10 10 9 8 8 7 7 8 7 6 6 6 6 6 6 5 4 3 2 1 0
0 4 3 1 4 3 2 7 5 3 3 4 2 4 5 4 2 4 5 7 8 9 10 11 12 11 10 9 9 9 9 7 7 7 6 5 5 4 3 4 3 3 2 2
3 5 4 2 2 5 2 3 5 5 1 1 3 3 5 5 4 1 2 4 6 9 10 10 11 10 10 10 10 10 9 7 7 7 6 5 5 5 4 4 3 2 2 2
4 3 4 2 2 1 4 4 4 3 2 2 3 2 3 4 3 1 1 4 6 7 7 8 9 10 10 9 8 8 8 8 7 7 6 5 5 5 4 4 4 3 3 2
3 3 3 2 2 3 0 1 3 2 4 4 2 5 5 5 3 2 2 3 5 7 8 8 7 7 7 7 8 7 7 7 6 6 5 5 4 4 4 4 4 4 3 3
2 4 2 5 5 3 3 3 4 3 3 3 3 6 4 3 3 2 2 2 2 4 6 7 7 6 6 7 7 7 7 7 7 6 6 5 5 4 4 4 4 4 4 4
3 4 1 5 5 3 0 1 3 4 3 3 3 6 3 1 0 1 2 2 2 3 3 3 5 6 7 7 7 7 7 7 6 6 6 5 5 5 5 4 4 4 4 4
4 4 6 7 6 3 3 4 2 3 3 4 6 6 5 3 2 2 2 2 3 4 5 4 4 5 6 7 7 6 6 7 7 6 6 6 6 6 5 4 4 4 4 4
4 3 4 5 5 4 4 6 5 4 7 7 7 6 7 5 5 4 3 2 3 3 4 5 5 4 4 5 5 6 6 6 7 7 7 7 6 5 5 5 5 4 4 5
3 3 2 3 3 3 5 6 6 6 5 5 5 6 5 3 2 1 1 2 3 4 5 5 5 5 4 5 5 5 6 6 6 7 7 7 6 6 6 5 5 4 4 4
2 3 2 4 4 2 6 7 7 5 5 5 6 7 3 2 3 4 5 4 5 4 4 6 6 6 6 6 6 7 6 5 6 7 6 7 7 7 6 6 5 5 4 4
5 4 3 2 0 6 8 4 5 5 5 5 5 5 5 6 6 5 5 6 6 5 5 6 6 5 5 5 5 5 5 5 6 6 6 7 7 7 6 6 6 5 4 4
6 6 3 2 3 5 5 3 3 4 5 5 5 4 4 4 1 4 4 5 7 7 6 6 6 5 5 5 5 5 4 4 5 5 6 7 8 7 7 7 6 5 4 4
3 4 4 3 3 6 7 5 2 2 5 5 4 4 2 2 1 6 5 4 4 4 4 4 4 4 5 5 6 6 5 5 6 6 6 6 8 8 8 8 6 4 5 5
1 1 4 4 5 7 7 4 1 3 6 4 4 5 4 5 7 7 5 4 4 4 4 4 4 4 5 5 6 6 6 7 7 5 4 5 6 8 8 6 5 5 5 4
5 4 5 4 4 8 4 1 4 6 4 3 4 5 5 5 4 3 4 4 4 3 3 4 4 4 3 5 7 7 7 6 4 4 4 5 6 6 6 6 5 5 6 5
5 6 6 7 8 5 3 5 5 3 3 4 4 4 4 3 3 3 3 3 3 4 3 3 4 3 3 5 7 8 6 5 5 4 4 4 5 4 5 6 6 5 5 4
3 2 2 3 5 5 5 4 3 3 4 4 4 4 4 4 4 3 3 3 3 3 3 3 4 4 4 4 5 6 6 5 6 5 5 4 4 4 4 4 5 5 5 5
5 2 2 4 5 4 4 4 4 4 3 2 2 3 4 4 4 3 3 3 3 3 3 3 4 4 4 4 4 4 5 6 6 5 4 4 4 4 4 4 4 5 6 7
5 5 5 6 6 4 7 7 5 3 4 3 2 1 2 3 4 3 3 3 3 3 2 3 3 3 3 4 4 4 5 7 7 5 4 4 3 3 3 3 2 2 3 5
Wind_Direction
76 96 204 217 207 195 182 179 223 243 239 191 212 224 215 204 192 192 191 188 192 201 195 173 165 157 148 147 144 143 138 138 125 117 116 106 97 69 44 38 58 63 75 80
48 241 231 222 222 201 195 211 249 271 251 189 218 239 225 210 204 196 191 192 195 192 180 178 170 161 160 161 158 154 153 152 147 145 146 141 135 126 111 36 44 60 72 74
189 233 236 221 212 202 225 203 215 226 285 338 68 300 263 241 221 207 198 195 193 186 181 181 174 173 168 167 168 165 165 159 154 140 119 96 71 55 46 37 20 24 69 73
230 246 249 219 217 188 240 231 203 185 123 271 193 265 271 231 223 213 208 200 196 188 180 178 176 174 177 178 171 165 164 160 155 143 137 139 135 142 182 171 133 18 55 82
249 220 203 223 216 179 215 221 183 189 166 294 278 207 280 224 224 224 212 204 198 188 181 179 181 180 179 175 170 168 161 160 158 153 149 143 141 152 146 119 109 58 40 67
248 257 218 217 199 172 152 35 18 42 77 267 236 194 269 229 218 219 211 204 195 186 184 182 180 175 174 171 167 164 160 163 162 158 154 152 153 151 141 144 146 109 48 45
324 311 295 129 58 19 74 78 27 358 5 260 238 195 250 252 227 208 202 201 195 185 181 177 173 174 173 171 168 164 163 167 170 165 165 167 166 162 164 169 167 156 140 138
216 289 277 193 162 176 169 140 158 197 227 279 293 230 263 290 251 189 188 186 181 178 181 180 179 179 178 174 170 166 168 170 173 172 174 175 170 166 175 175 168 174 181 188
176 257 291 270 175 149 157 188 177 150 225 272 282 295 323 348 359 57 142 160 179 180 180 182 182 180 178 176 176 175 172 170 175 177 174 174 175 173 179 176 169 176 183 175
163 229 284 293 46 359 163 159 100 120 163 251 287 277 259 282 301 336 193 190 186 179 179 179 180 183 182 182 177 172 170 174 176 175 177 178 182 179 174 161 166 177 180 163
146 164 298 339 192 225 239 127 127 143 167 168 247 270 239 214 211 202 208 198 193 182 180 180 181 180 180 177 172 171 172 169 173 177 175 170 174 169 160 166 177 176 166 155
146 128 228 260 268 230 191 192 150 158 235 183 187 260 276 207 193 192 208 191 183 178 181 178 172 165 166 173 176 176 175 175 179 174 164 165 167 160 159 174 185 169 159 155
135 117 70 338 333 348 257 207 156 150 147 185 198 258 306 332 344 217 196 189 166 145 146 152 160 169 175 177 178 179 180 182 178 168 162 161 163 163 169 176 171 162 156 152
128 139 174 203 226 238 261 267 224 153 179 220 223 246 286 283 267 263 215 196 177 164 164 155 162 181 183 183 181 178 181 180 173 167 166 170 176 176 175 171 167 166 160 157
116 172 214 231 238 238 243 250 245 223 208 210 230 233 249 241 233 232 210 185 167 156 166 176 178 183 185 180 182 180 181 179 174 170 175 184 183 174 165 166 171 167 164 167
122 171 210 266 263 266 267 255 246 244 232 221 228 249 249 250 242 244 193 175 188 182 183 186 183 183 186 190 184 180 184 183 174 176 186 184 173 169 170 173 169 164 167 166
159 154 169 249 275 317 266 240 227 231 233 210 225 242 247 257 242 217 201 197 204 197 192 189 187 188 192 192 186 183 184 176 173 179 184 181 177 176 179 175 166 170 174 166
165 159 165 206 193 233 246 244 201 207 239 225 221 236 221 217 226 226 205 199 207 201 198 198 192 190 192 187 185 177 167 165 173 178 182 182 179 179 176 171 175 178 171 171
167 153 151 157 207 261 276 257 213 210 251 240 218 234 243 230 251 277 241 211 206 198 196 199 194 185 180 179 174 163 165 168 173 183 187 187 181 178 175 179 184 179 169 175
133 131 142 162 192 234 244 255 238 146 253 246 200 202 220 143 200 256 252 228 213 192 183 182 179 167 171 180 166 162 174 177 190 196 194 190 182 181 184 186 183 176 173 179
140 137 172 192 217 253 256 272 98 193 241 246 201 195 186 192 216 237 234 212 195 187 185 170 166 177 188 177 163 171 180 199 204 194 188 186 183 185 184 181 176 171 172 168
187 188 196 176 203 247 256 162 187 224 248 245 216 207 199 215 239 243 222 198 184 177 174 166 168 189 194 176 169 179 197 206 187 174 179 186 184 183 176 171 174 171 169 172
201 197 189 192 214 239 234 213 229 216 235 247 226 224 201 211 230 238 216 191 187 180 181 177 175 182 191 185 177 184 202 185 165 167 181 188 181 180 170 171 175 173 175 180
260 204 179 236 254 256 263 265 269 246 240 245 231 213 191 200 212 222 201 184 180 186 189 179 167 178 199 198 190 191 185 172 164 173 186 183 176 173 169 173 177 180 185 189
234 198 204 248 269 302 299 276 262 275 287 292 266 221 199 192 202 199 198 190 193 202 197 179 178 190 203 197 196 188 174 167 170 177 182 181 179 176 176 181 190 196 202 196
215 197 196 227 233 234 261 266 275 276 271 261 259 258 217 195 200 199 202 196 188 193 190 182 181 187 195 186 188 192 181 170 168 174 182 184 181 177 175 174 181 226 208 200